Wind_Speed
26 26 27 27 27 26 24 19 15 13 14 15 17 16 12 9 6 6 11 5 16 6 11 13 19 23 18 16 12 3 4 4 5 1 9 14 13 11 9 10 14 10 18 28 36
27 27 28 28 28 26 23 18 15 14 14 17 16 13 10 7 9 16 12 11 13 12 16 20 19 20 15 18 11 8 3 6 10 4 13 19 15 16 13 13 10 13 23 35 36
27 28 29 29 29 26 22 19 17 16 16 18 13 9 8 2 9 4 13 14 15 20 20 20 22 19 17 14 16 14 15 16 11 16 7 6 6 7 2 12 17 21 25 29 34
28 28 29 29 30 27 22 19 20 20 18 14 10 6 6 5 2 9 2 8 16 21 19 22 19 18 17 19 18 18 11 4 3 3 9 9 7 7 12 9 13 24 26 26 25
29 29 30 31 30 27 21 19 21 18 13 11 7 7 2 7 3 4 3 8 16 19 21 19 19 18 18 17 18 17 15 9 7 4 6 8 18 13 18 9 10 24 25 26 23
29 30 31 31 31 26 20 19 19 14 10 9 8 5 6 9 3 1 4 12 17 24 22 23 15 15 16 19 16 16 13 12 7 13 9 9 14 10 2 14 20 23 25 26 24
29 30 31 31 30 25 18 19 17 10 8 7 3 6 12 8 2 3 5 13 19 25 18 24 19 14 16 12 16 15 17 11 11 8 10 14 5 7 19 23 23 23 24 24 24
29 30 32 31 29 21 16 21 13 8 9 5 2 6 7 3 4 6 9 11 16 23 24 17 18 13 16 14 15 12 17 15 15 16 13 17 5 17 22 15 24 24 23 20 20
30 30 32 31 27 19 18 18 8 8 5 5 6 10 6 4 7 5 6 13 17 19 21 17 15 13 13 16 13 14 14 19 15 20 13 14 3 7 2 20 21 22 23 22 19
29 30 32 30 25 18 19 18 11 10 8 9 15 10 9 4 2 4 7 11 14 15 13 13 10 13 13 14 14 16 17 16 17 17 14 15 11 8 8 13 22 20 22 21 23
30 30 30 29 22 16 23 8 4 6 13 11 2 6 4 5 8 8 10 12 13 12 14 18 12 17 20 21 20 20 19 17 17 17 18 17 14 12 16 12 14 21 20 22 24
31 31 30 27 21 17 19 7 7 8 8 11 5 5 2 6 4 5 10 11 13 14 16 13 19 19 18 20 18 19 20 19 12 15 18 17 12 17 9 11 18 22 22 23 24
30 30 31 26 19 16 11 6 8 8 7 13 12 9 7 7 5 9 9 14 15 16 18 20 13 22 20 17 17 18 17 16 17 9 19 13 15 10 6 8 17 18 21 24 24
30 29 30 26 11 13 6 7 8 4 5 15 9 5 7 7 6 4 5 9 15 16 19 21 21 14 20 20 17 18 15 18 19 17 12 18 10 20 23 21 25 10 23 24 24
31 31 27 13 15 9 8 9 8 4 5 12 10 5 2 11 9 9 1 7 13 14 11 18 21 20 18 15 20 17 16 14 16 18 19 21 12 12 29 21 8 21 18 24 24
32 28 19 5 10 11 8 9 5 6 5 6 6 8 10 10 5 4 7 8 10 10 14 15 17 17 19 18 15 16 15 17 17 14 16 21 18 14 13 13 17 22 22 24 25
32 16 9 11 8 8 10 8 6 9 11 8 9 6 11 12 5 6 9 12 9 9 13 14 17 17 13 16 19 15 14 12 13 13 17 18 19 15 14 26 30 26 25 25 25
25 7 7 10 9 11 11 9 7 8 8 8 2 2 5 7 7 4 5 9 10 9 13 13 13 20 16 17 16 21 18 13 16 14 17 20 20 19 23 15 35 33 29 11 29
20 13 13 7 7 7 8 9 3 13 14 4 6 7 9 9 4 3 9 12 10 5 7 10 16 19 11 18 18 20 19 22 23 22 16 17 18 23 21 22 17 14 13 15 7
18 16 7 6 5 9 7 12 7 16 12 5 6 8 9 8 12 5 8 6 0 8 8 9 14 16 16 9 14 20 19 18 15 22 24 18 21 13 20 18 17 19 15 11 8
6 5 7 9 4 6 8 6 11 11 10 10 10 12 8 12 10 5 10 4 2 3 2 11 11 18 17 13 13 13 15 20 19 17 18 16 16 18 14 22 18 20 21 21 20
9 3 11 6 6 5 7 12 3 9 5 4 4 6 7 12 14 9 8 8 10 10 6 14 10 12 17 19 19 17 21 20 14 18 16 15 17 21 10 9 21 19 17 23 19
6 4 8 8 4 7 8 10 8 12 9 8 6 6 7 7 6 8 10 11 5 3 9 9 7 10 15 15 20 13 19 20 21 19 22 16 15 25 17 13 7 15 15 17 23
5 2 5 7 8 11 7 7 7 8 5 8 8 7 8 9 8 6 7 5 10 6 7 4 12 17 14 11 13 12 15 19 21 16 17 20 24 21 16 8 12 9 5 11 21
3 6 4 9 8 9 13 10 6 8 10 4 2 6 8 9 8 9 9 4 7 4 6 6 15 18 21 24 20 18 17 18 20 23 20 19 22 22 9 21 16 19 20 10 11
7 5 5 6 8 4 10 9 9 12 8 11 10 12 10 8 12 15 14 12 9 6 6 15 15 17 20 22 21 21 19 18 20 20 22 18 21 20 16 7 19 19 21 27 7
7 3 5 5 8 7 6 6 7 6 3 4 7 8 7 9 11 12 15 14 15 13 13 10 7 12 18 17 21 21 20 19 20 20 18 18 19 18 15 16 8 14 17 18 24
Wind_Direction
1 359 355 352 350 347 345 339 330 322 317 319 324 323 324 312 289 258 238 213 213 229 192 186 197 211 208 222 208 167 273 326 294 102 188 165 148 157 284 244 194 178 142 153 162
357 356 353 350 347 345 344 345 336 327 319 317 319 315 313 312 272 251 233 226 194 205 193 196 197 209 216 217 228 194 239 349 289 239 181 177 170 151 182 178 165 123 123 151 163
353 352 350 347 345 342 340 337 332 324 315 314 311 308 310 307 273 197 196 212 227 203 207 192 197 204 221 223 216 235 250 206 261 220 108 125 116 29 167 173 156 137 148 155 164
350 349 347 345 342 339 336 332 330 323 310 302 302 301 301 253 332 126 175 229 203 200 222 241 210 206 220 229 234 231 230 131 250 210 175 154 99 340 310 287 147 140 152 158 162
347 346 345 344 341 337 332 328 331 329 317 294 293 290 227 218 261 129 322 201 195 200 218 231 210 212 222 230 234 238 250 214 159 168 189 137 147 175 205 239 239 137 158 158 165
345 343 342 342 340 335 329 326 328 326 312 297 294 233 240 254 50 14 193 181 191 196 213 232 214 218 232 246 249 254 235 242 187 187 179 194 147 168 285 215 149 148 165 165 173
343 341 340 340 338 332 327 325 324 321 305 320 289 208 255 288 344 271 180 188 193 194 210 226 222 238 241 275 269 272 270 252 191 218 196 207 79 287 160 213 140 153 172 173 173
342 340 338 339 338 328 323 321 312 300 305 286 225 249 280 11 270 221 192 174 188 196 221 216 227 254 254 255 263 264 252 256 218 205 222 218 152 173 140 170 154 155 172 171 181
341 339 337 336 336 323 317 323 294 278 290 263 267 216 240 162 201 169 212 186 182 203 229 239 219 234 248 253 256 246 241 230 238 195 192 221 94 169 214 172 156 158 172 172 184
342 338 337 335 332 317 315 311 280 275 273 244 261 263 223 167 90 219 207 203 188 198 209 229 217 236 233 232 230 238 219 251 225 193 200 215 113 129 240 271 154 164 176 176 177
341 337 336 333 327 312 315 303 210 207 234 269 153 249 139 136 196 213 177 203 197 197 207 210 209 219 227 230 243 267 278 231 254 182 192 213 134 152 204 244 257 164 177 182 172
340 335 333 330 321 303 300 288 26 328 296 209 247 261 302 274 176 168 187 191 198 206 211 197 230 231 231 240 231 257 266 275 249 187 193 146 147 190 206 249 262 168 174 186 178
338 334 330 324 315 288 269 353 317 308 261 205 212 220 179 225 251 137 209 222 199 220 217 229 222 218 240 240 248 246 251 262 267 233 186 207 156 167 251 312 291 193 175 187 184
335 332 327 321 304 297 250 346 316 309 268 156 186 195 194 243 206 108 281 292 228 242 222 231 246 236 215 242 239 247 243 254 274 276 254 188 217 192 186 200 244 248 174 188 186
334 331 319 309 302 299 353 318 314 234 267 152 122 91 139 219 112 176 171 248 263 233 247 234 234 238 245 239 238 253 262 258 242 268 275 265 250 205 167 185 176 281 237 188 188
333 327 314 252 240 261 318 309 244 232 231 130 128 179 200 206 195 115 203 222 311 295 282 267 273 235 244 241 239 254 252 272 272 248 245 253 264 246 169 178 172 230 302 189 189
333 318 277 284 294 321 308 265 228 248 137 144 171 179 206 170 171 235 208 201 230 213 233 239 253 265 266 248 238 227 234 239 239 237 245 233 242 247 221 183 177 170 232 207 183
334 285 257 254 293 304 282 250 260 260 98 75 51 95 244 169 224 165 263 250 254 274 284 286 229 215 230 237 246 212 227 230 226 237 243 233 248 231 255 243 178 190 188 219 175
331 278 242 242 307 291 268 237 316 8 19 40 155 261 227 155 290 201 243 270 299 59 312 298 255 297 265 214 226 247 225 238 262 269 258 255 227 229 245 245 201 154 162 160 280
326 296 93 330 312 266 255 262 66 37 3 5 309 325 283 210 175 244 254 47 19 52 348 307 306 290 285 211 258 231 257 231 230 249 260 265 265 237 207 237 219 145 155 168 162
278 235 50 336 257 246 251 44 51 66 13 356 342 324 330 302 334 297 303 41 159 271 116 308 287 278 291 266 234 231 248 259 270 231 252 256 258 271 213 206 216 185 175 177 171
291 325 11 325 248 241 49 21 323 19 21 2 331 305 307 319 315 307 288 298 39 359 314 320 311 281 266 275 270 227 265 253 248 253 266 257 255 260 343 251 206 228 221 170 161
289 43 32 318 305 351 74 77 31 7 18 8 333 354 344 311 299 283 293 296 88 346 11 340 286 275 264 265 267 249 243 254 267 252 255 255 241 263 288 331 256 205 224 155 162
282 342 78 42 19 352 19 37 68 72 53 355 322 318 323 296 285 300 319 303 15 308 46 319 283 283 278 280 338 305 246 259 271 256 252 250 266 276 257 304 327 350 323 245 172
315 50 334 13 23 46 13 29 40 26 2 9 30 4 352 313 298 274 249 305 302 263 244 251 263 272 278 284 287 282 283 285 270 259 259 249 254 262 21 355 343 351 347 269 228
360 352 68 21 21 29 39 56 30 11 357 0 346 355 328 305 317 319 321 302 275 268 278 284 256 267 274 284 276 264 263 264 275 281 277 263 277 291 334 81 295 331 360 340 260
11 330 324 26 45 43 42 22 13 36 354 356 347 325 317 350 330 299 294 286 266 258 276 242 250 263 273 275 278 268 255 260 263 263 270 267 264 282 302 301 283 321 356 343 337
Height
806 802 798 794 790 785 781 778 774 772 770 768 766 764 762 760 760 760 755 751 752 753 755 757 758 753 752 744 741 749 776 778 771 755 772 751 760 765 756 756 747 748 759 768 776
806 802 798 793 789 785 781 777 774 771 769 767 765 763 761 760 761 755 748 748 750 752 755 751 752 749 747 742 743 755 772 783 761 747 747 739 743 752 761 751 746 748 755 769 776
805 801 797 792 787 783 779 776 773 771 768 765 763 762 761 760 758 737 742 745 748 750 751 748 746 744 747 738 737 740 755 756 745 735 731 739 752 756 751 751 746 757 762 769 775
805 801 796 791 786 781 777 774 771 768 765 763 762 762 760 762 747 739 742 743 745 748 751 744 739 744 747 744 726 742 731 732 735 726 727 740 764 773 770 759 738 748 760 770 775
805 800 794 789 784 779 775 772 769 766 763 761 761 760 761 756 738 737 739 740 744 747 747 740 738 739 747 733 725 729 722 724 726 727 726 734 760 754 771 754 747 750 761 771 778
804 798 793 787 781 776 772 770 766 764 761 760 759 759 761 750 736 737 738 739 742 746 744 736 733 730 733 729 726 714 714 716 720 728 731 742 749 745 755 749 741 754 761 767 773
802 796 791 785 779 774 770 767 764 762 761 758 758 760 753 737 736 736 736 737 740 742 740 734 730 730 729 732 719 718 727 716 722 728 742 731 760 754 752 749 750 755 762 763 768
801 795 789 784 778 772 769 764 762 761 759 758 758 761 739 735 735 734 733 735 738 741 737 732 731 728 729 721 721 733 729 743 714 722 716 726 756 749 745 738 753 757 760 763 766
800 794 788 782 776 771 767 763 760 759 758 758 759 755 734 734 733 731 731 731 735 737 734 730 731 734 735 743 746 734 750 738 724 714 714 723 754 751 755 736 744 751 757 761 767
798 792 786 780 774 769 765 761 759 757 756 759 755 752 731 729 730 731 731 730 730 732 734 734 735 746 744 745 763 743 740 727 724 714 713 723 741 746 746 744 734 746 753 757 764
796 790 784 778 772 768 762 760 758 757 752 736 731 728 729 730 732 729 730 729 728 734 747 737 751 755 743 733 727 722 720 718 704 691 713 725 755 751 742 744 750 738 748 753 758
795 788 782 776 771 765 763 753 753 754 748 731 731 729 730 728 730 727 727 732 735 745 737 741 752 733 723 719 725 726 728 719 695 688 704 728 755 749 735 739 746 730 741 748 751
793 786 779 773 769 764 758 756 755 752 748 728 727 724 729 729 725 728 729 727 733 741 736 742 725 720 724 725 730 725 730 722 716 694 693 711 759 762 750 745 752 722 729 739 743
791 785 779 772 770 759 753 756 754 752 753 731 733 728 729 727 733 727 728 729 729 735 730 729 716 715 725 729 723 737 712 717 717 718 730 701 757 745 751 764 749 732 723 732 737
788 782 776 776 769 757 756 755 754 753 764 729 727 728 723 730 729 732 730 730 737 727 725 729 721 723 725 724 718 729 709 714 720 726 722 712 722 708 727 748 751 743 728 726 729
784 778 773 772 769 761 758 756 755 764 756 735 725 733 735 728 729 728 732 730 725 732 723 720 701 707 714 709 712 711 722 722 719 724 746 725 722 715 733 734 743 738 751 722 726
780 774 773 772 760 760 758 753 763 758 714 739 733 732 729 731 736 734 735 740 744 754 747 731 725 710 705 720 711 721 737 762 764 756 745 714 725 712 681 696 712 730 745 715 716
776 773 770 769 764 760 757 756 766 718 722 725 731 735 738 729 738 738 744 744 729 736 744 745 741 719 711 719 725 724 732 751 774 756 740 708 727 706 674 666 693 701 695 705 699
773 769 767 763 762 761 756 757 740 735 728 734 732 744 736 736 743 744 746 741 729 732 758 747 739 705 698 704 714 725 731 717 734 719 725 709 692 681 670 670 669 688 695 711 720
775 764 758 761 761 759 756 753 738 741 742 740 753 736 742 732 745 746 746 736 740 745 750 754 762 724 712 704 708 718 710 736 730 761 756 724 705 697 684 678 668 687 693 700 704
775 757 758 759 758 754 754 746 744 748 755 755 755 752 747 748 744 752 749 745 748 752 759 762 762 747 726 725 730 727 730 724 720 721 741 746 716 664 667 664 666 669 681 692 696
766 758 759 758 758 741 754 757 771 753 755 759 760 762 763 759 760 758 761 756 756 759 770 763 765 764 747 721 711 718 725 722 735 742 723 720 712 654 654 650 651 655 656 672 680
768 756 760 756 766 753 754 759 763 766 764 766 766 762 762 770 778 767 765 757 763 773 777 772 771 776 763 745 724 724 724 721 718 716 728 731 718 658 662 662 648 652 654 668 685
776 764 757 760 759 762 765 770 773 774 773 777 777 772 774 773 768 773 772 767 768 774 784 783 784 781 771 748 748 747 730 729 727 728 727 716 712 683 676 675 669 661 657 658 679
772 777 779 780 776 774 776 779 782 786 784 778 780 783 787 788 777 777 773 777 777 778 782 785 792 785 773 760 755 751 746 739 735 724 727 714 710 690 697 699 694 682 676 665 664
786 783 777 784 784 777 792 796 796 799 797 794 797 794 793 798 791 793 785 783 784 782 791 786 789 783 780 767 758 756 748 745 741 732 722 714 718 690 699 708 698 694 694 692 668
796 793 785 797 791 793 804 806 806 806 802 802 809 807 804 799 796 792 786 783 784 785 786 788 798 800 794 774 771 765 753 749 742 733 732 734 718 707 715 712 705 701 705 705 686